GONETS M 09 (M19)

Satellite information

Favourite Embed

Satellite Type and Status

PAYLOADIN ORBIT

Key statistics

Satellite GONETS M 09 (M19) at a glance.

Uptime

4082

Days in orbit

Revolutions

≈ 12.4

Per day

Orbit

LEO

Low Earth Orbit

Inclination

82.5

Latest

Satellite identification and parameters

Extended collection of information and parameters for GONETS M 09 (M19).

Object identification

Identified? True

Debris? False

Object name: GONETS M 09 (M19)

International designator: 2014-036B

Object number (NORAD): 40062

Object ID (CCSDS): 40062

Country: COMMONWEALTH OF INDEPENDENT STATES (CIS)

Current information (Y/N): Y

RCS size: LARGE

Orbital parameters

Period: 115.854 minutes

Inclination: 82.5097 deg

SMA: 7872.304 km

Apoapsis: 1513.095 km

Periapsis: 1475.244 km

RAAN: 125.8853 deg

Eccentricy: 0.00240407

Argument of periapsis: 61.219 deg

Mean anomaly: 299.13 deg

Mean motion: 12.42939387 rev/day

Mean motion (dot): 0.00000016 rev/day2

B* drag term: 0.000040543205 1/REarth

Two-line elements (TLE)

Creation date: Sept. 3, 2025, 10:15 a.m.

Reference frame: TEME

Reference center: EARTH

Epoch: Sept. 3, 2025, 6:58 a.m. UTC

TLE line 0: 0 GONETS M 09 (M19)

TLE line 1: 1 40062U 14036B 25246.29060823 .00000016 00000-0 40543-4 0 9992

TLE line 2: 2 40062 82.5097 125.8853 0024041 61.2190 299.1300 12.42939387506819

Live tracking on map

Real-time ground track for satellite GONETS M 09 (M19).

In-orbit conjunctions

There are no conjunctions computed for GONETS M 09 (M19), at the moment. Check back to stay up to date, as we update our databases every day.

Go to all conjunctions

Associated space launch

Gonets-M are an upgraded version of Gonets satellites, derived from military communications system Strela-3. Gonets-M constellation is tasked with monitoring ecological and industrial objects, providing communication and data transmission services, covering also the remote areas like the Far North region.

GONETS M 09 (M19) was lifted into orbit during the mission ‘Rokot / Briz-KM | Gonets-M18, Gonets-M19, Gonets-M20’, on board a Rokot/Briz-KM space rocket.

The launch took place on July 3, 2014, 12:43 p.m. from 133/3 (133L).

For more information about the launch, click the button.

Launch to space Rokot / Briz-KM | Gonets-M18, Gonets-M19, Gonets-M20
Rokot / Briz-KM | Gonets-M18, Gonets-M19, Gonets-M20

Agency: N/A

Status: Launch Successful

Launch date: July 3, 2014, 12:43 p.m. UTC

Rocket: Rokot/Briz-KM

Launch pad: 133/3 (133L)

Location: Plesetsk Cosmodrome, Russian Federation

...

Latest news about this satellite

There are no fresh news available about this satellite. Check back as we update our databases every day.


Newsletter sign-up

Weekly statistics, charts and insights to help you stay on top of the space industry.